COSMOS 2251 DEB, 37533

Orbit data source: Space-Track

COSMOS 2251 DEB, 37533 is space debris in LEO originally from a launch on Wed, 16 Jun 1993 UTC launched from the Plesetsk Missile And Space Complex (PKMTR). The debris from Iridium 33, an American commercial communications satellite, has been tracked extensively since its accidental collision with the defunct Russian satellite Cosmos 2251 in 2009. This event, occurring at high speed in low Earth orbit (LEO), generated thousands of pieces of space debris, significantly increasing the risk of further collisions. The Iridium 33 debris cloud has impacted space traffic management and orbital debris mitigation strategies, making it a subject of ongoing study in space situational awareness.

Loading next visibility...
Identifier
37533, 1993-036BNN
Orbit
LEO
Country
Flag of CISCIS
Related business
Manufacturer
Unknown
Mission
Spacecraft
Bus & Motor
Unknown
Mass
Unknown
Launch date (UTC)
1993-06-16 (32 years ago)
Launch vehicle
Unknown
Launch site
Plesetsk Missile And Space Complex (PKMTR)
Object type
Payload
Rocket body
Debris
Shape & HBR
Unknown shape, 0.1 m
Radar Cross Section
Small (<0.1 m²)

Expand to show TLE details & history
Last TLE update: 2 days ago

TLE from 2 days ago
0 COSMOS 2251 DEB
1 37533U 93036BNN 25344.83029418  .00003939  00000-0  19185-2 0  9995
2 37533  74.0697 195.1706 0158044 252.2523 106.1316 14.12152288628949
Epoch: 2025-12-10T19:55Z
TLE epoch observation values (Epoch: 2025-12-10T19:55:37.417Z)
Latitude
0.00002°
Longitude
176.46971°
Altitude
888.01 km
Speed
7.391 km/s
True Right ascension
13h 00m 40s
True Declination
0° 00' 00"
Sunlit
Object was in daylight at epoch
Visualization orbit readout
Latitude
Unknown
Longitude
Unknown
Altitude
Unknown
Speed
Unknown
Apparent Right ascension
Unknown
Apparent Declination
Unknown
Sunlit
N/A
Visualization observer readout
Local Sidereal Time
02:48:11
Azimuth
Unknown
Elevation
Unknown
Doppler factor
Unknown
Orbital elements
Apogee altitude
963.894 km
Perigee altitude
735.432 km
Semi-major axis
7,227.8 km
Eccentricity
0.0158
Inclination
74.0697°
RAAN
195.1706°
Arg. of periapsis
252.2523°
True anomaly
107.86158°
Mean anomaly
106.1316°
Eccentric anomaly
106.99757°
Mean motion
3.53211 °/min
Orbital period
101.92 mins
BSTAR
0.0019185

Documentation

Showing up to 5 results
|